Flag for Germany Weather past 2 weeks in Kempten, Bavaria, Germany

Now
68 °F

Sunny.


Feels Like: 68 °F
Forecast: 47 / 71 °F
Wind: 5 mph from West

Location: Kempten

Current Time: May 28, 2015 at 6:19:42 PM

Latest Report: May 28, 2015 at 6:00 PM


Visibility: 13 mi

Pressure: 29.93 "Hg

Humidity: 26%

Dew point: 31 °F

Location of KemptenLocation

Historic Weather in Kempten — Graph

°F

Kempten temperature yesterday

Maximum temperature yesterday: 57 °F (at 6:00 PM)
Minimum temperature yesterday: 43 °F (at 6:00 AM)
Average temperature yesterday: 49 °F

Past Weeks' High & Low Weather Summary

 TemperatureHumidityPressure
High74 °F (May 13, 4:00 PM)99% (May 16, 7:00 AM)30.34 "Hg (May 16, 7:00 AM)
Low37 °F (May 28, 6:00 AM)23% (May 28, 4:00 PM)29.70 "Hg (May 18, 7:00 PM)
Average52 °F81%30.05 "Hg
* Reported May 13 4:00 PM — May 28 4:00 PM, Kempten, Weather by CustomWeather, © 2015

Note: Actual official high and low records may vary slightly from our data, if they occured in-between our weather recording intervals... More about our weather records

Advertising

Kempten weather history for previous 24 hours

 ConditionsComfort  
Time TempWeatherWind HumidityBarometerVisibility
4:00 PM
Thu, May 28
67 °FSunny.6 mph23%29.96 "Hg3 mi
3:00 PM65 °FSunny.6 mph24%29.98 "Hg11 mi
2:00 PM65 °FSunny.6 mph28%30.00 "Hg9 mi
1:00 PM63 °FSunny.5 mph36%30.02 "Hg15 mi
12:00 PM62 °FSunny.5 mph37%30.03 "Hg16 mi
10:00 AM56 °FSunny.2 mph53%30.08 "Hg14 mi
9:00 AM50 °FScattered clouds.2 mph64%30.12 "Hg28 mi
8:00 AM45 °FSunny.3 mph76%30.14 "Hg14 mi
7:00 AM41 °FSunny.3 mph84%30.17 "Hg17 mi
6:00 AM37 °FSunny.2 mph95%30.18 "Hg7 mi
4:00 AM38 °FPassing clouds.2 mph94%30.19 "Hg7 mi
3:00 AM38 °FClear.2 mph95%30.20 "Hg8 mi
2:00 AM39 °FPassing clouds.2 mph93%30.21 "Hg7 mi
1:00 AM38 °FClear.2 mph94%30.22 "Hg7 mi
12:00 AM39 °FClear.2 mph95%30.24 "Hg6 mi
10:00 PM
Wed, May 27
44 °FClear.2 mph87%30.22 "Hg7 mi
9:00 PM50 °FSunny.1 mph70%30.18 "Hg16 mi
8:00 PM54 °FPassing clouds.2 mph47%30.16 "Hg19 mi
7:00 PM56 °FPartly sunny.3 mph45%30.16 "Hg15 mi
6:00 PM57 °FOvercast.2 mph47%30.15 "Hg16 mi
Weather by CustomWeather, © 2015

See weather overviewHow to use our weather pages